Hourly Data Report for October 22, 2016

All times are specified in Local Standard Time (LST). Add 1 hour to adjust for Daylight Saving Time where and when it is observed.

EUREKA CLIMATE
NUNAVUT

79°59'21.000" N
85°56'02.000" W
10.00 m
2401199
71613
NEK

Download Data

Hourly Data (October 2016)
Hourly Data Report for October 22, 2016
Temp Definition
°C
Dew Point Temp Definition
°C
Rel Hum Definition
%
Wind Dir Definition
10's deg

Wind Spd Definition
km/h
Visibility Definition
km
Stn Press Definition
kPa
Hmdx Definition


Wind Chill Definition


Weather Definition


TIME
00:00 -24.0 -25.9 84 8 3   101.68   -27 LegendNANA
01:00 -25.0 -27.1 83 3 4   101.68   -29 LegendNANA
02:00 -24.8 -26.9 83 5 4   101.69   -29 LegendNANA
03:00 -23.2 -25.2 84 10 2   101.68   -25 LegendNANA
04:00 -22.8 -24.8 84 36 3   101.67   -26 LegendNANA
05:00 -22.2 -24.1 85 35 4   101.65   -26 LegendNANA
06:00 -21.8 -23.6 85 11 3   101.65   -25 LegendNANA
07:00 -21.6 -23.5 85 9 4   101.62   -25 LegendNANA
08:00 -18.6 -20.0 89 11 7   101.61   -24 LegendNANA
09:00 -14.9 -15.9 92 13 15   101.57   -23 LegendNANA
10:00 -13.6 -14.5 93 13 15   101.58   -21 LegendNANA
11:00 -12.5 -13.4 93 14 26   101.59   -22 LegendNANA
12:00 -11.8 -12.7 94 14 31   101.58   -22 LegendNANA
13:00 -11.3 -12.1 94 13 29   101.62   -21 LegendNANA
14:00 -10.6 -11.4 94 14 36   101.62   -21 LegendNANA
15:00 -10.3 -11.1 94 13 28   101.66   -20 LegendNANA
16:00 -10.2 -10.9 94 14 33   101.64   -20 LegendNANA
17:00 -9.8 -10.6 94 14 32   101.65   -20 LegendNANA
18:00 -9.5 -10.1 95 12 35   101.64   -20 LegendNANA
19:00 -9.0 -9.7 95 12 34   101.67   -19 LegendNANA
20:00 -8.9 -9.6 95 12 34   101.68   -19 LegendNANA
21:00 -8.9 -9.7 94 15 31   101.71   -18 LegendNANA
22:00 -8.7 -9.7 93 14 31   101.70   -18 LegendNANA
23:00 -8.6 -9.7 92 15 24   101.76   -17 LegendNANA

Notes on Data Quality.

Legend

  • E = Estimated
  • M = Missing
  • NA = Not Available
  • ‡ = Partner data that is not subject to review by the National Climate Archives
Date modified: